Location: Assche-ter-Heiden
(50.9174°N, 4.1574°E)
Time: 00:28:22
(UTC+00:00)

Cosmos 1295 Rocket - Pass Details

Date: 20 January 2020
Orbit: 943 x 995 km, 82.9° (Epoch: 23 February)

Event Time Altitude Azimuth Distance (km) Brightness Sun altitude
Rises 04:52:21 0° 350° (N) 3,691 7.4 -25.2°
Reaches altitude 10° 04:54:53 10° 350° (N) 2,732 6.7 -24.8°
Maximum altitude 05:01:10 88° 82° (E) 972 4.4 -23.8°
Drops below altitude 10° 05:07:19 10° 171° (S) 2,678 6.9 -22.9°
Sets 05:09:46 0° 172° (S) 3,613 7.6 -22.5°
